Location: Bottenau
(48.5138°N, 8.0462°E)
Time: 21:08:27
(UTC+00:00)

Cosmos 1140 Rocket - Pass Details

Date: 18 April 2021
Orbit: 744 x 767 km, 74.1° (Epoch: 18 May)

Event Time Altitude Azimuth Distance (km) Brightness Sun altitude
Exits shadow 21:18:32 22° 221° (SW) 1,600 5.0 -23.9°
Maximum altitude 21:21:49 61° 296° (WNW) 847 3.9 -24.2°
Drops below altitude 10° 21:26:54 10° 17° (NNE) 2,271 6.4 -24.7°
Sets 21:29:19 0° 21° (NNE) 3,200 7.2 -24.9°
